TNO1122 KPHX-KLRD

Flight info

Callsign TNO1122
Flight time N/A
Altitude 21000
Route ECLPS1 PHASE ELP KOBLE DLF
Aircraft AT75/M-SDFGIRY/S

Departure

Time 2026-05-06 14:06
Airport Phoenix Sky Harbor International Airport (KPHX)

Arrival

Time N/A
Airport Laredo International Airport (KLRD)
Time Latitude Longitude Altitude Speed Heading
2026-05-06 13:54 33.42703 -112.01198 1143 ft 0 kts 180°
2026-05-06 13:56 33.42702 -112.01198 1143 ft 0 kts 180°
2026-05-06 14:01 33.42714 -112.01197 1143 ft 2 kts 191°
2026-05-06 14:01 33.42732 -112.01189 1143 ft 3 kts 212°
2026-05-06 14:01 33.42746 -112.01173 1143 ft 3 kts 234°
2026-05-06 14:01 33.42755 -112.01151 1143 ft 3 kts 254°
2026-05-06 14:02 33.42763 -112.01174 1143 ft 19 kts 287°
2026-05-06 14:02 33.42779 -112.01346 1143 ft 20 kts 270°
2026-05-06 14:02 33.42779 -112.01511 1143 ft 19 kts 270°
2026-05-06 14:02 33.42779 -112.01667 1143 ft 21 kts 270°
2026-05-06 14:03 33.42780 -112.01828 1143 ft 19 kts 270°
2026-05-06 14:03 33.42780 -112.01990 1143 ft 19 kts 271°
2026-05-06 14:03 33.42780 -112.02150 1143 ft 19 kts 270°
2026-05-06 14:03 33.42780 -112.02307 1143 ft 19 kts 270°
2026-05-06 14:04 33.42780 -112.02460 1143 ft 18 kts 270°
2026-05-06 14:04 33.42780 -112.02613 1143 ft 18 kts 270°
2026-05-06 14:04 33.42844 -112.02690 1143 ft 15 kts
2026-05-06 14:04 33.42951 -112.02692 1143 ft 16 kts 359°
2026-05-06 14:05 33.43068 -112.02692 1143 ft 17 kts
2026-05-06 14:05 33.43106 -112.02644 1143 ft 0 kts 89°
2026-05-06 14:05 33.43107 -112.02583 1143 ft 45 kts 89°
2026-05-06 14:05 33.43110 -112.01752 1143 ft 144 kts 90°
2026-05-06 14:06 33.43108 -112.00380 1280 ft 173 kts 90°
2026-05-06 14:06 33.43045 -111.98939 1651 ft 181 kts 100°
2026-05-06 14:06 33.42450 -111.97557 2049 ft 194 kts 129°
2026-05-06 14:06 33.41314 -111.96625 2439 ft 201 kts 157°
2026-05-06 14:07 33.39949 -111.96417 2810 ft 199 kts 184°
2026-05-06 14:07 33.38664 -111.96990 3179 ft 197 kts 213°
2026-05-06 14:07 33.37725 -111.98251 3498 ft 216 kts 242°
2026-05-06 14:07 33.37300 -112.00012 3890 ft 229 kts 265°
2026-05-06 14:08 33.37500 -112.01935 4265 ft 235 kts 285°
2026-05-06 14:08 33.38058 -112.03781 4647 ft 239 kts 292°
2026-05-06 14:08 33.38726 -112.05641 5051 ft 245 kts 293°
2026-05-06 14:08 33.39392 -112.07527 5428 ft 251 kts 292°
2026-05-06 14:09 33.39977 -112.09511 5785 ft 252 kts 285°
2026-05-06 14:09 33.40321 -112.11566 6161 ft 250 kts 276°
2026-05-06 14:09 33.40375 -112.13629 6556 ft 250 kts 267°
2026-05-06 14:09 33.40164 -112.15710 6935 ft 252 kts 259°
2026-05-06 14:10 33.39552 -112.17626 7272 ft 248 kts 238°
2026-05-06 14:10 33.38370 -112.19107 7646 ft 244 kts 215°
2026-05-06 14:10 33.36842 -112.19886 8014 ft 241 kts 192°
2026-05-06 14:10 33.35181 -112.19870 8386 ft 239 kts 168°
2026-05-06 14:11 33.33673 -112.19066 8767 ft 237 kts 147°
2026-05-06 14:11 33.32385 -112.17870 9141 ft 236 kts 141°
2026-05-06 14:11 33.31102 -112.16639 9515 ft 235 kts 143°
2026-05-06 14:11 33.29772 -112.15482 9850 ft 236 kts 144°
2026-05-06 14:12 33.28452 -112.14309 10128 ft 240 kts 143°
2026-05-06 14:12 33.27139 -112.13045 10407 ft 242 kts 140°
2026-05-06 14:12 33.25881 -112.11714 10681 ft 245 kts 136°
2026-05-06 14:12 33.24809 -112.10122 10958 ft 246 kts 122°
2026-05-06 14:13 33.23984 -112.08323 11237 ft 247 kts 115°
2026-05-06 14:13 33.23315 -112.06447 11511 ft 248 kts 110°
2026-05-06 14:13 33.22723 -112.04499 11789 ft 249 kts 108°
2026-05-06 14:13 33.22180 -112.02542 12063 ft 250 kts 106°
2026-05-06 14:14 33.21655 -112.00551 12338 ft 251 kts 106°
2026-05-06 14:14 33.21143 -111.98571 12611 ft 252 kts 106°
2026-05-06 14:14 33.20628 -111.96556 12886 ft 253 kts 106°
2026-05-06 14:14 33.20108 -111.94530 13163 ft 254 kts 106°
2026-05-06 14:15 33.19592 -111.92532 13435 ft 254 kts 107°
2026-05-06 14:15 33.19066 -111.90510 13710 ft 254 kts 107°
2026-05-06 14:15 33.18544 -111.88508 13982 ft 254 kts 107°
2026-05-06 14:15 33.18014 -111.86483 14258 ft 254 kts 107°
2026-05-06 14:16 33.17664 -111.85147 14440 ft 254 kts 107°
2026-05-06 14:16 33.16958 -111.82468 14805 ft 254 kts 107°
2026-05-06 14:16 33.16603 -111.81135 14988 ft 254 kts 108°
2026-05-06 14:16 33.16068 -111.79112 15262 ft 254 kts 108°
2026-05-06 14:17 33.15362 -111.76440 15627 ft 254 kts 108°
2026-05-06 14:17 33.15007 -111.75094 15810 ft 255 kts 108°
2026-05-06 14:17 33.14297 -111.72401 16175 ft 258 kts 108°
2026-05-06 14:17 33.13933 -111.71040 16361 ft 260 kts 108°
2026-05-06 14:18 33.13378 -111.68958 16641 ft 263 kts 108°
2026-05-06 14:18 33.12823 -111.66860 16919 ft 266 kts 108°
2026-05-06 14:18 33.12270 -111.64763 17194 ft 268 kts 108°
2026-05-06 14:18 33.11708 -111.62632 17470 ft 270 kts 109°
2026-05-06 14:19 33.11148 -111.60513 17744 ft 271 kts 109°
2026-05-06 14:19 33.10575 -111.58348 18021 ft 273 kts 109°
2026-05-06 14:19 33.09997 -111.56180 18298 ft 273 kts 109°
2026-05-06 14:19 33.09426 -111.54036 18571 ft 275 kts 109°
2026-05-06 14:20 33.08845 -111.51857 18847 ft 276 kts 109°
2026-05-06 14:20 33.08261 -111.49660 19124 ft 276 kts 109°
2026-05-06 14:20 33.07628 -111.47528 19395 ft 276 kts 114°
2026-05-06 14:20 33.06825 -111.45450 19671 ft 275 kts 119°
2026-05-06 14:21 33.05919 -111.43428 19948 ft 275 kts 122°
2026-05-06 14:21 33.04966 -111.41478 20221 ft 275 kts 124°
2026-05-06 14:21 33.03963 -111.39529 20498 ft 275 kts 125°
2026-05-06 14:21 33.02936 -111.37591 20775 ft 275 kts 126°
2026-05-06 14:22 33.01905 -111.35674 20983 ft 278 kts 126°
2026-05-06 14:22 33.00837 -111.33710 21076 ft 285 kts 127°
2026-05-06 14:22 32.99746 -111.31716 21096 ft 288 kts 127°
2026-05-06 14:22 32.98662 -111.29738 21096 ft 288 kts 127°
2026-05-06 14:23 32.97565 -111.27739 21095 ft 286 kts 127°